Year,Month,Day,Hour,Minute,Value (Times are PST for temperature in C)
2009,06,03,00,00,19.70
2009,06,03,00,01,19.60
2009,06,03,00,02,19.60
2009,06,03,00,03,19.60
2009,06,03,00,04,19.50
2009,06,03,00,05,19.50
2009,06,03,00,06,19.50
2009,06,03,00,07,19.40
2009,06,03,00,08,19.40
2009,06,03,00,09,19.40
2009,06,03,00,10,19.30
2009,06,03,00,11,19.30
2009,06,03,00,12,19.30
2009,06,03,00,13,19.30
2009,06,03,00,14,19.30
2009,06,03,00,15,19.20
2009,06,03,00,16,19.20
2009,06,03,00,17,19.20
2009,06,03,00,18,19.20
2009,06,03,00,19,19.20
2009,06,03,00,20,19.20
2009,06,03,00,21,19.10
2009,06,03,00,22,19.10
2009,06,03,00,23,19.10
2009,06,03,00,24,19.10
2009,06,03,00,25,19.10
2009,06,03,00,26,19.10
2009,06,03,00,27,19.20
2009,06,03,00,28,19.20
2009,06,03,00,29,19.20
2009,06,03,00,30,19.20
2009,06,03,00,31,19.20
2009,06,03,00,32,19.30
2009,06,03,00,33,19.30
2009,06,03,00,34,19.30
2009,06,03,00,35,19.30
2009,06,03,00,36,19.30
2009,06,03,00,37,19.30
2009,06,03,00,38,19.30
2009,06,03,00,39,19.30
2009,06,03,00,40,19.30
2009,06,03,00,41,19.30
2009,06,03,00,42,19.30
2009,06,03,00,43,19.30
2009,06,03,00,44,19.30
2009,06,03,00,45,19.30
2009,06,03,00,46,19.30
2009,06,03,00,47,19.30
2009,06,03,00,48,19.30
2009,06,03,00,49,19.20
2009,06,03,00,50,19.20
2009,06,03,00,51,19.20
2009,06,03,00,52,19.20
2009,06,03,00,53,19.20
2009,06,03,00,54,19.10
2009,06,03,00,55,19.10
2009,06,03,00,56,19.10
2009,06,03,00,57,19.00
2009,06,03,00,58,19.00
2009,06,03,00,59,19.00
2009,06,03,01,00,19.00
2009,06,03,01,01,18.90
2009,06,03,01,02,18.90
2009,06,03,01,03,18.90
2009,06,03,01,04,18.90
2009,06,03,01,05,18.90
2009,06,03,01,06,18.90
2009,06,03,01,07,18.90
2009,06,03,01,08,18.80
2009,06,03,01,09,18.80
2009,06,03,01,10,18.80
2009,06,03,01,11,18.80
2009,06,03,01,12,18.80
2009,06,03,01,13,18.70
2009,06,03,01,14,18.70
2009,06,03,01,15,18.70
2009,06,03,01,16,18.60
2009,06,03,01,17,18.60
2009,06,03,01,18,18.60
2009,06,03,01,19,18.50
2009,06,03,01,20,18.50
2009,06,03,01,21,18.50
2009,06,03,01,22,18.40
2009,06,03,01,23,18.40
2009,06,03,01,24,18.40
2009,06,03,01,25,18.40
2009,06,03,01,26,18.40
2009,06,03,01,27,18.40
2009,06,03,01,28,18.40
2009,06,03,01,29,18.40
2009,06,03,01,30,18.40
2009,06,03,01,31,18.40
2009,06,03,01,32,18.40
2009,06,03,01,33,18.40
2009,06,03,01,34,18.30
2009,06,03,01,35,18.30
2009,06,03,01,36,18.30
2009,06,03,01,37,18.30
2009,06,03,01,38,18.30
2009,06,03,01,39,18.30
2009,06,03,01,40,18.30
2009,06,03,01,41,18.30
2009,06,03,01,42,18.20
2009,06,03,01,43,18.20
2009,06,03,01,44,18.20
2009,06,03,01,45,18.20
2009,06,03,01,46,18.20
2009,06,03,01,47,18.20
2009,06,03,01,48,18.20
2009,06,03,01,49,18.20
2009,06,03,01,50,18.10
2009,06,03,01,51,18.10
2009,06,03,01,52,18.00
2009,06,03,01,53,17.90
2009,06,03,01,54,17.90
2009,06,03,01,55,17.80
2009,06,03,01,56,17.80
2009,06,03,01,57,17.70
2009,06,03,01,58,17.70
2009,06,03,01,59,17.60
2009,06,03,02,00,17.60
2009,06,03,02,01,17.50
2009,06,03,02,02,17.50
2009,06,03,02,03,17.50
2009,06,03,02,04,17.50
2009,06,03,02,05,17.50
2009,06,03,02,06,17.50
2009,06,03,02,07,17.50
2009,06,03,02,08,17.60
2009,06,03,02,09,17.60
2009,06,03,02,10,17.70
2009,06,03,02,11,17.70
2009,06,03,02,12,17.70
2009,06,03,02,13,17.70
2009,06,03,02,14,17.70
2009,06,03,02,15,17.70
2009,06,03,02,16,17.70
2009,06,03,02,17,17.70
2009,06,03,02,18,17.70
2009,06,03,02,19,17.70
2009,06,03,02,20,17.70
2009,06,03,02,21,17.70
2009,06,03,02,22,17.70
2009,06,03,02,23,17.70
2009,06,03,02,24,17.70
2009,06,03,02,25,17.80
2009,06,03,02,26,17.80
2009,06,03,02,27,17.80
2009,06,03,02,28,17.90
2009,06,03,02,29,17.90
2009,06,03,02,30,17.90
2009,06,03,02,31,18.00
2009,06,03,02,32,18.10
2009,06,03,02,33,18.10
2009,06,03,02,34,18.20
2009,06,03,02,35,18.20
2009,06,03,02,36,18.20
2009,06,03,02,37,18.30
2009,06,03,02,38,18.30
2009,06,03,02,39,18.40
2009,06,03,02,40,18.40
2009,06,03,02,41,18.50
2009,06,03,02,42,18.50
2009,06,03,02,43,18.50
2009,06,03,02,44,18.50
2009,06,03,02,45,18.50
2009,06,03,02,46,18.50
2009,06,03,02,47,18.60
2009,06,03,02,48,18.50
2009,06,03,02,49,18.50
2009,06,03,02,50,18.50
2009,06,03,02,51,18.50
2009,06,03,02,52,18.50
2009,06,03,02,53,18.50
2009,06,03,02,54,18.50
2009,06,03,02,55,18.50
2009,06,03,02,56,18.40
2009,06,03,02,57,18.40
2009,06,03,02,58,18.40
2009,06,03,02,59,18.30
2009,06,03,03,00,18.30
2009,06,03,03,01,18.30
2009,06,03,03,02,18.20
2009,06,03,03,03,18.20
2009,06,03,03,04,18.10
2009,06,03,03,05,18.00
2009,06,03,03,06,18.00
2009,06,03,03,07,17.90
2009,06,03,03,08,17.90
2009,06,03,03,09,17.80
2009,06,03,03,10,17.80
2009,06,03,03,11,17.70
2009,06,03,03,12,17.70
2009,06,03,03,13,17.60
2009,06,03,03,14,17.50
2009,06,03,03,15,17.40
2009,06,03,03,16,17.40
2009,06,03,03,17,17.40
2009,06,03,03,18,17.40
2009,06,03,03,19,17.40
2009,06,03,03,20,17.20
2009,06,03,03,21,17.10
2009,06,03,03,22,17.10
2009,06,03,03,23,17.00
2009,06,03,03,24,16.90
2009,06,03,03,25,16.90
2009,06,03,03,26,16.80
2009,06,03,03,27,16.80
2009,06,03,03,28,16.80
2009,06,03,03,29,16.70
2009,06,03,03,30,16.70
2009,06,03,03,31,16.70
2009,06,03,03,32,16.60
2009,06,03,03,33,16.50
2009,06,03,03,34,16.50
2009,06,03,03,35,16.40
2009,06,03,03,36,16.40
2009,06,03,03,37,16.30
2009,06,03,03,38,16.30
2009,06,03,03,39,16.30
2009,06,03,03,40,16.20
2009,06,03,03,41,16.20
2009,06,03,03,42,16.20
2009,06,03,03,43,16.20
2009,06,03,03,44,16.20
2009,06,03,03,45,16.20
2009,06,03,03,46,16.20
2009,06,03,03,47,16.20
2009,06,03,03,48,16.20
2009,06,03,03,49,16.20
2009,06,03,03,50,16.20
2009,06,03,03,51,16.10
2009,06,03,03,52,16.10
2009,06,03,03,53,16.10
2009,06,03,03,54,16.10
2009,06,03,03,55,16.10
2009,06,03,03,56,16.10
2009,06,03,03,57,16.10
2009,06,03,03,58,16.10
2009,06,03,03,59,16.10
2009,06,03,04,00,16.10
2009,06,03,04,01,16.10
2009,06,03,04,02,16.10
2009,06,03,04,03,16.10
2009,06,03,04,04,16.10
2009,06,03,04,05,16.10
2009,06,03,04,06,16.00
2009,06,03,04,07,16.00
2009,06,03,04,08,16.00
2009,06,03,04,09,16.00
2009,06,03,04,10,16.00
2009,06,03,04,11,16.00
2009,06,03,04,12,16.10
2009,06,03,04,13,16.10
2009,06,03,04,14,16.20
2009,06,03,04,15,16.30
2009,06,03,04,16,16.30
2009,06,03,04,17,16.40
2009,06,03,04,18,16.40
2009,06,03,04,19,16.40
2009,06,03,04,20,16.30
2009,06,03,04,21,16.30
2009,06,03,04,22,16.20
2009,06,03,04,23,16.20
2009,06,03,04,24,16.10
2009,06,03,04,25,16.10
2009,06,03,04,26,16.00
2009,06,03,04,27,16.00
2009,06,03,04,28,15.90
2009,06,03,04,29,15.90
2009,06,03,04,30,15.90
2009,06,03,04,31,15.90
2009,06,03,04,32,15.90
2009,06,03,04,33,16.00
2009,06,03,04,34,16.00
2009,06,03,04,35,16.10
2009,06,03,04,36,16.10
2009,06,03,04,37,16.20
2009,06,03,04,38,16.20
2009,06,03,04,39,16.30
2009,06,03,04,40,16.30
2009,06,03,04,41,16.30
2009,06,03,04,42,16.30
2009,06,03,04,43,16.30
2009,06,03,04,44,16.30
2009,06,03,04,45,16.40
2009,06,03,04,46,16.40
2009,06,03,04,47,16.40
2009,06,03,04,48,16.40
2009,06,03,04,49,16.40
2009,06,03,04,50,16.40
2009,06,03,04,51,16.40
2009,06,03,04,52,16.40
2009,06,03,04,53,16.40
2009,06,03,04,54,16.30
2009,06,03,04,55,16.30
2009,06,03,04,56,16.30
2009,06,03,04,57,16.30
2009,06,03,04,58,16.30
2009,06,03,04,59,16.30
2009,06,03,05,00,16.30
2009,06,03,05,01,16.30
2009,06,03,05,02,16.30
2009,06,03,05,03,16.30
2009,06,03,05,04,16.30
2009,06,03,05,05,16.30
2009,06,03,05,06,16.30
2009,06,03,05,07,16.30
2009,06,03,05,08,16.30
2009,06,03,05,09,16.30
2009,06,03,05,10,16.30
2009,06,03,05,11,16.20
2009,06,03,05,12,16.20
2009,06,03,05,13,16.20
2009,06,03,05,14,16.20
2009,06,03,05,15,16.10
2009,06,03,05,16,16.10
2009,06,03,05,17,16.10
2009,06,03,05,18,16.10
2009,06,03,05,19,16.10
2009,06,03,05,20,16.10
2009,06,03,05,21,16.20
2009,06,03,05,22,16.20
2009,06,03,05,23,16.30
2009,06,03,05,24,16.30
2009,06,03,05,25,16.40
2009,06,03,05,26,16.40
2009,06,03,05,27,16.50
2009,06,03,05,28,16.60
2009,06,03,05,29,16.60
2009,06,03,05,30,16.60
2009,06,03,05,31,16.60
2009,06,03,05,32,16.60
2009,06,03,05,33,16.60
2009,06,03,05,34,16.60
2009,06,03,05,35,16.60
2009,06,03,05,36,16.50
2009,06,03,05,37,16.50
2009,06,03,05,38,16.50
2009,06,03,05,39,16.40
2009,06,03,05,40,16.40
2009,06,03,05,41,16.40
2009,06,03,05,42,16.30
2009,06,03,05,43,16.30
2009,06,03,05,44,16.20
2009,06,03,05,45,16.20
2009,06,03,05,46,16.20
2009,06,03,05,47,16.10
2009,06,03,05,48,16.10
2009,06,03,05,49,16.20
2009,06,03,05,50,16.20
2009,06,03,05,51,16.20
2009,06,03,05,52,16.30
2009,06,03,05,53,16.30
2009,06,03,05,54,16.40
2009,06,03,05,55,16.40
2009,06,03,05,56,16.50
2009,06,03,05,57,16.50
2009,06,03,05,58,16.60
2009,06,03,05,59,16.70
2009,06,03,06,00,16.80
2009,06,03,06,01,16.80
2009,06,03,06,02,16.90
2009,06,03,06,03,17.00
2009,06,03,06,04,17.00
2009,06,03,06,05,17.10
2009,06,03,06,06,17.20
2009,06,03,06,07,17.20
2009,06,03,06,08,17.30
2009,06,03,06,09,17.40
2009,06,03,06,10,17.40
2009,06,03,06,11,17.50
2009,06,03,06,12,17.60
2009,06,03,06,13,17.60
2009,06,03,06,14,17.70
2009,06,03,06,15,17.70
2009,06,03,06,16,17.80
2009,06,03,06,17,17.80
2009,06,03,06,18,17.80
2009,06,03,06,19,17.90
2009,06,03,06,20,17.90
2009,06,03,06,21,17.90
2009,06,03,06,22,17.90
2009,06,03,06,23,17.90
2009,06,03,06,24,17.90
2009,06,03,06,25,18.00
2009,06,03,06,26,18.00
2009,06,03,06,27,18.00
2009,06,03,06,28,18.00
2009,06,03,06,29,18.00
2009,06,03,06,30,18.00
2009,06,03,06,31,18.00
2009,06,03,06,32,18.00
2009,06,03,06,33,17.90
2009,06,03,06,34,17.90
2009,06,03,06,35,17.90
2009,06,03,06,36,17.90
2009,06,03,06,37,17.90
2009,06,03,06,38,17.90
2009,06,03,06,39,17.90
2009,06,03,06,40,17.90
2009,06,03,06,41,17.80
2009,06,03,06,42,17.80
2009,06,03,06,43,17.80
2009,06,03,06,44,17.80
2009,06,03,06,45,17.80
2009,06,03,06,46,17.80
2009,06,03,06,47,17.80
2009,06,03,06,48,17.80
2009,06,03,06,49,17.80
2009,06,03,06,50,17.80
2009,06,03,06,51,17.80
2009,06,03,06,52,17.80
2009,06,03,06,53,17.80
2009,06,03,06,54,17.80
2009,06,03,06,55,17.80
2009,06,03,06,56,17.80
2009,06,03,06,57,17.80
2009,06,03,06,58,17.80
2009,06,03,06,59,17.90
2009,06,03,07,00,17.90
2009,06,03,07,01,17.90
2009,06,03,07,02,17.90
2009,06,03,07,03,18.00
2009,06,03,07,04,18.00
2009,06,03,07,05,18.10
2009,06,03,07,06,18.10
2009,06,03,07,07,18.10
2009,06,03,07,08,18.10
2009,06,03,07,09,18.20
2009,06,03,07,10,18.20
2009,06,03,07,11,18.20
2009,06,03,07,12,18.30
2009,06,03,07,13,18.30
2009,06,03,07,14,18.30
2009,06,03,07,15,18.40
2009,06,03,07,16,18.40
2009,06,03,07,17,18.40
2009,06,03,07,18,18.50
2009,06,03,07,19,18.50
2009,06,03,07,20,18.60
2009,06,03,07,21,18.60
2009,06,03,07,22,18.70
2009,06,03,07,23,18.70
2009,06,03,07,24,18.70
2009,06,03,07,25,18.80
2009,06,03,07,26,18.80
2009,06,03,07,27,18.90
2009,06,03,07,28,18.90
2009,06,03,07,29,19.00
2009,06,03,07,30,19.00
2009,06,03,07,31,19.10
2009,06,03,07,32,19.10
2009,06,03,07,33,19.20
2009,06,03,07,34,19.20
2009,06,03,07,35,19.30
2009,06,03,07,36,19.30
2009,06,03,07,37,19.40
2009,06,03,07,38,19.50
2009,06,03,07,39,19.50
2009,06,03,07,40,19.60
2009,06,03,07,41,19.70
2009,06,03,07,42,19.70
2009,06,03,07,43,19.80
2009,06,03,07,44,19.80
2009,06,03,07,45,19.90
2009,06,03,07,46,19.90
2009,06,03,07,47,19.90
2009,06,03,07,48,20.00
2009,06,03,07,49,20.00
2009,06,03,07,50,20.00
2009,06,03,07,51,20.00
2009,06,03,07,52,19.90
2009,06,03,07,53,19.90
2009,06,03,07,54,19.90
2009,06,03,07,55,20.00
2009,06,03,07,56,20.00
2009,06,03,07,57,20.00
2009,06,03,07,58,20.00
2009,06,03,07,59,20.00
2009,06,03,08,00,20.00
2009,06,03,08,01,20.00
2009,06,03,08,02,20.00
2009,06,03,08,03,20.00
2009,06,03,08,04,20.00
2009,06,03,08,05,20.00
2009,06,03,08,06,20.10
2009,06,03,08,07,20.10
2009,06,03,08,08,20.10
2009,06,03,08,09,20.10
2009,06,03,08,10,20.20
2009,06,03,08,11,20.20
2009,06,03,08,12,20.20
2009,06,03,08,13,20.20
2009,06,03,08,14,20.20
2009,06,03,08,15,20.30
2009,06,03,08,16,20.30
2009,06,03,08,17,20.30
2009,06,03,08,18,20.30
2009,06,03,08,19,20.40
2009,06,03,08,20,20.40
2009,06,03,08,21,20.40
2009,06,03,08,22,20.50
2009,06,03,08,23,20.60
2009,06,03,08,24,20.60
2009,06,03,08,25,20.70
2009,06,03,08,26,20.70
2009,06,03,08,27,20.80
2009,06,03,08,28,20.80
2009,06,03,08,29,20.80
2009,06,03,08,30,20.80
2009,06,03,08,31,20.90
2009,06,03,08,32,20.90
2009,06,03,08,33,21.00
2009,06,03,08,34,21.00
2009,06,03,08,35,21.10
2009,06,03,08,36,21.10
2009,06,03,08,37,21.10
2009,06,03,08,38,21.20
2009,06,03,08,39,21.20
2009,06,03,08,40,21.30
2009,06,03,08,41,21.40
2009,06,03,08,42,21.40
2009,06,03,08,43,21.50
2009,06,03,08,44,21.50
2009,06,03,08,45,21.50
2009,06,03,08,46,21.50
2009,06,03,08,47,21.60
2009,06,03,08,48,21.60
2009,06,03,08,49,21.60
2009,06,03,08,50,21.60
2009,06,03,08,51,21.70
2009,06,03,08,52,21.70
2009,06,03,08,53,21.70
2009,06,03,08,54,21.70
2009,06,03,08,55,21.70
2009,06,03,08,56,21.70
2009,06,03,08,57,21.80
2009,06,03,08,58,21.80
2009,06,03,08,59,21.80
2009,06,03,09,00,21.80
2009,06,03,09,01,21.80
2009,06,03,09,02,21.80
2009,06,03,09,03,21.90
2009,06,03,09,04,22.00
2009,06,03,09,05,22.00
2009,06,03,09,06,22.10
2009,06,03,09,07,22.20
2009,06,03,09,08,22.20
2009,06,03,09,09,22.20
2009,06,03,09,10,22.20
2009,06,03,09,11,22.30
2009,06,03,09,12,22.30
2009,06,03,09,13,22.40
2009,06,03,09,14,22.40
2009,06,03,09,15,22.40
2009,06,03,09,16,22.40
2009,06,03,09,17,22.50
2009,06,03,09,18,22.60
2009,06,03,09,19,22.60
2009,06,03,09,20,22.70
2009,06,03,09,21,22.80
2009,06,03,09,22,22.80
2009,06,03,09,23,22.90
2009,06,03,09,24,22.90
2009,06,03,09,25,22.90
2009,06,03,09,26,22.90
2009,06,03,09,27,22.90
2009,06,03,09,28,22.90
2009,06,03,09,29,22.80
2009,06,03,09,30,22.80
2009,06,03,09,31,22.80
2009,06,03,09,32,22.70
2009,06,03,09,33,22.60
2009,06,03,09,34,22.60
2009,06,03,09,35,22.60
2009,06,03,09,36,22.60
2009,06,03,09,37,22.60
2009,06,03,09,38,22.60
2009,06,03,09,39,22.70
2009,06,03,09,40,22.70
2009,06,03,09,41,22.70
2009,06,03,09,42,22.70
2009,06,03,09,43,22.70
2009,06,03,09,44,22.80
2009,06,03,09,45,22.80
2009,06,03,09,46,22.80
2009,06,03,09,47,22.90
2009,06,03,09,48,22.90
2009,06,03,09,49,23.00
2009,06,03,09,50,23.10
2009,06,03,09,51,23.10
2009,06,03,09,52,23.10
2009,06,03,09,53,23.10
2009,06,03,09,54,23.10
2009,06,03,09,55,23.10
2009,06,03,09,56,23.10
2009,06,03,09,57,23.20
2009,06,03,09,58,23.20
2009,06,03,09,59,23.20
2009,06,03,10,00,23.30
2009,06,03,10,01,23.30
2009,06,03,10,02,23.40
2009,06,03,10,03,23.40
2009,06,03,10,04,23.40
2009,06,03,10,05,23.40
2009,06,03,10,06,23.40
2009,06,03,10,07,23.40
2009,06,03,10,08,23.40
2009,06,03,10,09,23.40
2009,06,03,10,10,23.50
2009,06,03,10,11,23.50
2009,06,03,10,12,23.60
2009,06,03,10,13,23.60
2009,06,03,10,14,23.70
2009,06,03,10,15,23.70
2009,06,03,10,16,23.70
2009,06,03,10,17,23.70
2009,06,03,10,18,23.70
2009,06,03,10,19,23.70
2009,06,03,10,20,23.70
2009,06,03,10,21,23.70
2009,06,03,10,22,23.70
2009,06,03,10,23,23.70
2009,06,03,10,24,23.60
2009,06,03,10,25,23.60
2009,06,03,10,26,23.60
2009,06,03,10,27,23.60
2009,06,03,10,28,23.70
2009,06,03,10,29,23.80
2009,06,03,10,30,23.80
2009,06,03,10,31,23.90
2009,06,03,10,32,24.00
2009,06,03,10,33,24.00
2009,06,03,10,34,24.00
2009,06,03,10,35,24.00
2009,06,03,10,36,24.00
2009,06,03,10,37,24.00
2009,06,03,10,38,24.10
2009,06,03,10,39,24.10
2009,06,03,10,40,24.20
2009,06,03,10,41,24.20
2009,06,03,10,42,24.30
2009,06,03,10,43,24.20
2009,06,03,10,44,24.30
2009,06,03,10,45,24.30
2009,06,03,10,46,24.30
2009,06,03,10,47,24.30
2009,06,03,10,48,24.40
2009,06,03,10,49,24.50
2009,06,03,10,50,24.50
2009,06,03,10,51,24.60
2009,06,03,10,52,24.60
2009,06,03,10,53,24.60
2009,06,03,10,54,24.60
2009,06,03,10,55,24.60
2009,06,03,10,56,24.60
2009,06,03,10,57,24.60
2009,06,03,10,58,24.70
2009,06,03,10,59,24.70
2009,06,03,11,00,24.70
2009,06,03,11,01,24.80
2009,06,03,11,02,24.80
2009,06,03,11,03,24.80
2009,06,03,11,04,24.80
2009,06,03,11,05,24.90
2009,06,03,11,06,24.90
2009,06,03,11,07,24.90
2009,06,03,11,08,25.00
2009,06,03,11,09,25.00
2009,06,03,11,10,25.10
2009,06,03,11,11,25.20
2009,06,03,11,12,25.20
2009,06,03,11,13,25.20
2009,06,03,11,14,25.20
2009,06,03,11,15,25.20
2009,06,03,11,16,25.30
2009,06,03,11,17,25.40
2009,06,03,11,18,25.40
2009,06,03,11,19,25.50
2009,06,03,11,20,25.50
2009,06,03,11,21,25.60
2009,06,03,11,22,25.60
2009,06,03,11,23,25.60
2009,06,03,11,24,25.50
2009,06,03,11,25,25.60
2009,06,03,11,26,25.60
2009,06,03,11,27,25.50
2009,06,03,11,28,25.50
2009,06,03,11,29,25.40
2009,06,03,11,30,25.40
2009,06,03,11,31,25.40
2009,06,03,11,32,25.40
2009,06,03,11,33,25.50
2009,06,03,11,34,25.60
2009,06,03,11,35,25.60
2009,06,03,11,36,25.60
2009,06,03,11,37,25.60
2009,06,03,11,38,25.60
2009,06,03,11,39,25.60
2009,06,03,11,40,25.50
2009,06,03,11,41,25.50
2009,06,03,11,42,25.50
2009,06,03,11,43,25.60
2009,06,03,11,44,25.60
2009,06,03,11,45,25.70
2009,06,03,11,46,25.70
2009,06,03,11,47,25.70
2009,06,03,11,48,25.70
2009,06,03,11,49,25.70
2009,06,03,11,50,25.70
2009,06,03,11,51,25.70
2009,06,03,11,52,25.70
2009,06,03,11,53,25.70
2009,06,03,11,54,25.70
2009,06,03,11,55,25.70
2009,06,03,11,56,25.70
2009,06,03,11,57,25.70
2009,06,03,11,58,25.70
2009,06,03,11,59,25.70
2009,06,03,12,00,25.70
2009,06,03,12,01,25.70
2009,06,03,12,02,25.70
2009,06,03,12,03,25.80
2009,06,03,12,04,25.80
2009,06,03,12,05,25.70
2009,06,03,12,06,25.60
2009,06,03,12,07,25.60
2009,06,03,12,08,25.60
2009,06,03,12,09,25.70
2009,06,03,12,10,25.80
2009,06,03,12,11,25.90
2009,06,03,12,12,26.00
2009,06,03,12,13,26.10
2009,06,03,12,14,26.10
2009,06,03,12,15,26.10
2009,06,03,12,16,26.20
2009,06,03,12,17,26.20
2009,06,03,12,18,26.30
2009,06,03,12,19,26.20
2009,06,03,12,20,26.20
2009,06,03,12,21,26.20
2009,06,03,12,22,26.20
2009,06,03,12,23,26.20
2009,06,03,12,24,26.20
2009,06,03,12,25,26.20
2009,06,03,12,26,26.20
2009,06,03,12,27,26.20
2009,06,03,12,28,26.30
2009,06,03,12,29,26.40
2009,06,03,12,30,26.50
2009,06,03,12,31,26.60
2009,06,03,12,32,26.60
2009,06,03,12,33,26.70
2009,06,03,12,34,26.70
2009,06,03,12,35,26.80
2009,06,03,12,36,26.80
2009,06,03,12,37,26.90
2009,06,03,12,38,26.90
2009,06,03,12,39,26.90
2009,06,03,12,40,26.90
2009,06,03,12,41,26.90
2009,06,03,12,42,26.80
2009,06,03,12,43,26.80
2009,06,03,12,44,26.80
2009,06,03,12,45,26.80
2009,06,03,12,46,26.70
2009,06,03,12,47,26.70
2009,06,03,12,48,26.70
2009,06,03,12,49,26.70
2009,06,03,12,50,26.70
2009,06,03,12,51,26.70
2009,06,03,12,52,26.80
2009,06,03,12,53,26.90
2009,06,03,12,54,27.00
2009,06,03,12,55,27.10
2009,06,03,12,56,27.20
2009,06,03,12,57,27.30
2009,06,03,12,58,27.40
2009,06,03,12,59,27.40
2009,06,03,13,00,27.40
2009,06,03,13,01,27.50
2009,06,03,13,02,27.60
2009,06,03,13,03,27.60
2009,06,03,13,04,27.60
2009,06,03,13,05,27.70
2009,06,03,13,06,27.70
2009,06,03,13,07,27.80
2009,06,03,13,08,27.90
2009,06,03,13,09,28.00
2009,06,03,13,10,28.10
2009,06,03,13,11,28.10
2009,06,03,13,12,28.10
2009,06,03,13,13,28.10
2009,06,03,13,14,28.10
2009,06,03,13,15,28.10
2009,06,03,13,16,28.20
2009,06,03,13,17,28.20
2009,06,03,13,18,28.10
2009,06,03,13,19,28.10
2009,06,03,13,20,28.10
2009,06,03,13,21,28.10
2009,06,03,13,22,28.10
2009,06,03,13,23,28.10
2009,06,03,13,24,28.20
2009,06,03,13,25,28.20
2009,06,03,13,26,28.20
2009,06,03,13,27,28.20
2009,06,03,13,28,28.20
2009,06,03,13,29,28.20
2009,06,03,13,30,28.20
2009,06,03,13,31,28.20
2009,06,03,13,32,28.20
2009,06,03,13,33,28.20
2009,06,03,13,34,28.20
2009,06,03,13,35,28.20
2009,06,03,13,36,28.20
2009,06,03,13,37,28.20
2009,06,03,13,38,28.20
2009,06,03,13,39,28.30
2009,06,03,13,40,28.40
2009,06,03,13,41,28.40
2009,06,03,13,42,28.50
2009,06,03,13,43,28.60
2009,06,03,13,44,28.70
2009,06,03,13,45,28.90
2009,06,03,13,46,29.00
2009,06,03,13,47,29.00
2009,06,03,13,48,29.10
2009,06,03,13,49,29.10
2009,06,03,13,50,29.20
2009,06,03,13,51,29.20
2009,06,03,13,52,29.20
2009,06,03,13,53,29.30
2009,06,03,13,54,29.30
2009,06,03,13,55,29.30
2009,06,03,13,56,29.30
2009,06,03,13,57,29.20
2009,06,03,13,58,29.20
2009,06,03,13,59,29.20
2009,06,03,14,00,29.20
2009,06,03,14,01,29.20
2009,06,03,14,02,29.20
2009,06,03,14,03,29.20
2009,06,03,14,04,29.20
2009,06,03,14,05,29.30
2009,06,03,14,06,29.30
2009,06,03,14,07,29.30
2009,06,03,14,08,29.40
2009,06,03,14,09,29.40
2009,06,03,14,10,29.50
2009,06,03,14,11,29.60
2009,06,03,14,12,29.60
2009,06,03,14,13,29.60
2009,06,03,14,14,29.60
2009,06,03,14,15,29.50
2009,06,03,14,16,29.30
2009,06,03,14,17,29.30
2009,06,03,14,18,29.20
2009,06,03,14,19,29.20
2009,06,03,14,20,29.20
2009,06,03,14,21,29.30
2009,06,03,14,22,29.30
2009,06,03,14,23,29.40
2009,06,03,14,24,29.40
2009,06,03,14,25,29.50
2009,06,03,14,26,29.60
2009,06,03,14,27,29.60
2009,06,03,14,28,29.70
2009,06,03,14,29,29.70
2009,06,03,14,30,29.80
2009,06,03,14,31,29.80
2009,06,03,14,32,29.90
2009,06,03,14,33,29.90
2009,06,03,14,34,29.90
2009,06,03,14,35,29.90
2009,06,03,14,36,29.90
2009,06,03,14,37,29.80
2009,06,03,14,38,29.80
2009,06,03,14,39,29.70
2009,06,03,14,40,29.60
2009,06,03,14,41,29.40
2009,06,03,14,42,29.30
2009,06,03,14,43,29.20
2009,06,03,14,44,29.20
2009,06,03,14,45,29.10
2009,06,03,14,46,29.10
2009,06,03,14,47,29.10
2009,06,03,14,48,29.00
2009,06,03,14,49,29.00
2009,06,03,14,50,28.90
2009,06,03,14,51,29.00
2009,06,03,14,52,29.00
2009,06,03,14,53,29.00
2009,06,03,14,54,29.00
2009,06,03,14,55,29.00
2009,06,03,14,56,29.10
2009,06,03,14,57,29.10
2009,06,03,14,58,29.10
2009,06,03,14,59,29.10
2009,06,03,15,00,29.10
2009,06,03,15,01,29.10
2009,06,03,15,02,29.20
2009,06,03,15,03,29.30
2009,06,03,15,04,29.40
2009,06,03,15,05,29.50
2009,06,03,15,06,29.60
2009,06,03,15,07,29.60
2009,06,03,15,08,29.60
2009,06,03,15,09,29.60
2009,06,03,15,10,29.50
2009,06,03,15,11,29.50
2009,06,03,15,12,29.60
2009,06,03,15,13,29.60
2009,06,03,15,14,29.70
2009,06,03,15,15,29.70
2009,06,03,15,16,29.80
2009,06,03,15,17,29.90
2009,06,03,15,18,29.90
2009,06,03,15,19,29.90
2009,06,03,15,20,30.00
2009,06,03,15,21,30.10
2009,06,03,15,22,30.20
2009,06,03,15,23,30.30
2009,06,03,15,24,30.30
2009,06,03,15,25,30.40
2009,06,03,15,26,30.40
2009,06,03,15,27,30.40
2009,06,03,15,28,30.30
2009,06,03,15,29,30.40
2009,06,03,15,30,30.40
2009,06,03,15,31,30.40
2009,06,03,15,32,30.30
2009,06,03,15,33,30.20
2009,06,03,15,34,30.10
2009,06,03,15,35,30.00
2009,06,03,15,36,29.90
2009,06,03,15,37,29.80
2009,06,03,15,38,29.60
2009,06,03,15,39,29.60
2009,06,03,15,40,29.50
2009,06,03,15,41,29.50
2009,06,03,15,42,29.50
2009,06,03,15,43,29.40
2009,06,03,15,44,29.50
2009,06,03,15,45,29.50
2009,06,03,15,46,29.50
2009,06,03,15,47,29.60
2009,06,03,15,48,29.60
2009,06,03,15,49,29.60
2009,06,03,15,50,29.50
2009,06,03,15,51,29.50
2009,06,03,15,52,29.50
2009,06,03,15,53,29.50
2009,06,03,15,54,29.50
2009,06,03,15,55,29.40
2009,06,03,15,56,29.30
2009,06,03,15,57,29.20
2009,06,03,15,58,29.20
2009,06,03,15,59,29.10
2009,06,03,16,00,29.10
2009,06,03,16,01,29.10
2009,06,03,16,02,29.10
2009,06,03,16,03,29.10
2009,06,03,16,04,29.10
2009,06,03,16,05,29.20
2009,06,03,16,06,29.20
2009,06,03,16,07,29.20
2009,06,03,16,08,29.20
2009,06,03,16,09,29.30
2009,06,03,16,10,29.30
2009,06,03,16,11,29.30
2009,06,03,16,12,29.30
2009,06,03,16,13,29.30
2009,06,03,16,14,29.30
2009,06,03,16,15,29.30
2009,06,03,16,16,29.30
2009,06,03,16,17,29.40
2009,06,03,16,18,29.40
2009,06,03,16,19,29.40
2009,06,03,16,20,29.40
2009,06,03,16,21,29.40
2009,06,03,16,22,29.50
2009,06,03,16,23,29.60
2009,06,03,16,24,29.60
2009,06,03,16,25,29.70
2009,06,03,16,26,29.70
2009,06,03,16,27,29.70
2009,06,03,16,28,29.80
2009,06,03,16,29,29.80
2009,06,03,16,30,29.80
2009,06,03,16,31,29.90
2009,06,03,16,32,30.00
2009,06,03,16,33,30.10
2009,06,03,16,34,30.10
2009,06,03,16,35,30.20
2009,06,03,16,36,30.30
2009,06,03,16,37,30.40
2009,06,03,16,38,30.50
2009,06,03,16,39,30.50
2009,06,03,16,40,30.60
2009,06,03,16,41,30.60
2009,06,03,16,42,30.60
2009,06,03,16,43,30.60
2009,06,03,16,44,30.70
2009,06,03,16,45,30.80
2009,06,03,16,46,30.90
2009,06,03,16,47,30.90
2009,06,03,16,48,31.00
2009,06,03,16,49,31.10
2009,06,03,16,50,31.10
2009,06,03,16,51,31.10
2009,06,03,16,52,31.10
2009,06,03,16,53,31.10
2009,06,03,16,54,31.10
2009,06,03,16,55,31.10
2009,06,03,16,56,31.20
2009,06,03,16,57,31.30
2009,06,03,16,58,31.30
2009,06,03,16,59,31.30
2009,06,03,17,00,31.40
2009,06,03,17,01,31.40
2009,06,03,17,02,31.30
2009,06,03,17,03,31.30
2009,06,03,17,04,31.30
2009,06,03,17,05,31.20
2009,06,03,17,06,31.20
2009,06,03,17,07,31.10
2009,06,03,17,08,31.00
2009,06,03,17,09,30.90
2009,06,03,17,10,30.90
2009,06,03,17,11,30.90
2009,06,03,17,12,31.00
2009,06,03,17,13,31.00
2009,06,03,17,14,31.10
2009,06,03,17,15,31.10
2009,06,03,17,16,31.10
2009,06,03,17,17,31.10
2009,06,03,17,18,31.20
2009,06,03,17,19,31.20